Voltar ao catálogo

FENGYUN 1C DEB

AtivoSSO
NORAD 31021·DEBRIS·🇨🇳 China

Lançado May 10, 1999 de Taiyuan Satellite Launch Center

Loading…

Próximas Passagens (próximas 24 horas)

TLE

AtualizadoSource: Space-Track

Época: Sep 14, 2026, 02:07 UTC

1 31021U 99025BDP 26257.08869377  .00004045  00000-0  31620-3 0  9990
2 31021  98.3749  22.9259 0257563  81.9238 281.1105 14.79064912774983

Acompanhe FENGYUN 1C DEB em tempo real com AllMySat

Download on the App Store